[[{"header":{"parameterUnit":"m.s-1","parameterCategory":1,"la1":30.2991,"la2":30.254,"lo1":-89.0895,"lo2":-89.0444,"dy":0.0017,"dx":0.0017,"nx":28,"ny":28,"refTime":"2024-06-10T21:00:00:Z","depth":0,"parameterNumber":2,"parameterNumberName":"U-component_of_WINDS"},"data":[0,0,0,0,0,0,0,0,0,0,0,0,0,0,0,0,0,0,0,0,0,0,0,0,0,0,0,0,0,0,0,0,0,0,0,0,0,0,0,0,0,0,0,0,0,0,0,0,0,0,0,0,0,0,0,0,0,0,-0.7649,-0.7649,0,-0.7644,-0.7644,-0.7644,-0.7609,-0.7609,-0.7608,-0.7607,-0.7602,-0.7603,-0.7603,0,0,0,0,0,0,0,0,0,0,0,0,0,-0.7629,-0.7629,-0.7649,-0.7649,-0.7649,-0.7644,-0.7644,-0.7644,-0.761,-0.7608,-0.7607,-0.7607,-0.7602,-0.7603,-0.7603,0,0,0,0,0,0,0,0,0,0,0,0,0,-0.7632,-0.7629,-0.7649,-0.7631,-0.7629,-0.7644,-0.7644,-0.7644,-0.761,-0.7608,-0.7607,-0.7606,-0.7602,-0.7603,-0.7604,-0.7635,0,0,-0.7607,-0.7607,0,0,0,0,0,0,0,0,-0.7632,-0.7633,-0.7634,-0.7632,-0.763,-0.7626,-0.7635,-0.7641,-0.761,-0.7617,-0.7607,-0.7605,-0.7611,-0.7611,-0.7613,-0.7635,-0.7634,-0.7607,-0.7607,-0.7608,-0.7608,0,0,0,0,0,0,0,-0.7632,-0.7633,-0.7647,-0.7634,-0.7632,-0.7623,-0.7622,-0.7636,-0.7621,-0.7616,-0.7614,-0.7614,-0.761,-0.7612,-0.7613,-0.7634,-0.7607,-0.7608,-0.7608,-0.7609,-0.7681,-0.7682,0,0,0,0,0,0,-0.7634,-0.7633,-0.7647,-0.7647,-0.7628,-0.7625,-0.7624,-0.7629,-0.7621,-0.7619,-0.7615,-0.7612,-0.7611,-0.7612,-0.7612,-0.7648,-0.7608,-0.7609,-0.7609,-0.7679,-0.7681,-0.7682,0,0,0,0,0,0,-0.7634,-0.7636,-0.7647,-0.7639,-0.764,-0.7626,-0.7632,-0.7629,-0.7631,-0.762,-0.7617,-0.762,-0.761,-0.7611,-0.7629,-0.7647,-0.7609,-0.761,-0.7678,-0.768,-0.7682,-0.772,0,0,0,0,0,0,-0.7633,-0.7636,-0.7647,-0.764,-0.764,-0.7664,-0.7633,-0.763,-0.7633,-0.763,-0.7624,-0.7622,-0.7609,-0.7628,-0.763,-0.7648,-0.7611,-0.7676,-0.7679,-0.7681,-0.7717,-0.7723,-0.7728,0,0,0,0,0,-0.7633,-0.7659,-0.7648,-0.765,-0.7655,-0.7665,-0.7666,-0.7651,-0.7635,-0.7646,-0.7639,-0.7622,-0.7645,-0.763,-0.7632,-0.7651,-0.7675,-0.7678,-0.7681,-0.7714,-0.7722,-0.7728,0,0,0,0,0,0,-0.7669,-0.7657,-0.7646,-0.767,-0.7669,-0.766,-0.7674,-0.7659,-0.7663,-0.766,-0.7641,-0.764,-0.7661,-0.7658,-0.7642,-0.768,-0.7657,-0.7661,-0.7682,-0.7689,-0.7694,-0.7694,-0.7612,0,0,0,0,0,-0.768,-0.7689,-0.7679,-0.7701,-0.7701,-0.7688,-0.7692,-0.768,-0.7679,-0.7678,-0.7672,-0.7671,-0.7678,-0.7683,-0.7689,-0.7716,-0.7714,-0.773,-0.7735,-0.774,-0.7743,-0.7757,-0.7764,-0.7692,-0.7692,-0.7692,0,0,-0.7702,-0.7697,-0.7704,-0.7708,-0.7706,-0.7716,-0.7688,-0.77,-0.7707,-0.768,-0.7697,-0.7692,-0.769,-0.7713,-0.7723,-0.7711,-0.7763,-0.7744,-0.7748,-0.7748,-0.7761,-0.7767,-0.7773,-0.7694,-0.7694,-0.7693,0,0,-0.7749,-0.7746,-0.7764,-0.7762,-0.7759,-0.775,-0.7754,-0.7747,-0.7743,-0.776,-0.774,-0.7748,-0.7761,-0.776,-0.7761,-0.7806,-0.7791,-0.7809,-0.7838,-0.7851,-0.7857,-0.7862,-0.7877,-0.7883,-0.7812,-0.7812,-0.7812,0,-0.7777,-0.7791,-0.7775,-0.7788,-0.779,-0.7766,-0.7784,-0.7783,-0.7783,-0.7785,-0.7771,-0.7786,-0.7783,-0.7805,-0.7816,-0.7818,-0.7822,-0.7809,-0.7857,-0.7862,-0.7866,-0.7881,-0.7887,-0.7814,-0.7814,-0.7814,-0.7814,0,-0.7826,-0.7836,-0.7851,-0.7851,-0.7855,-0.787,-0.7856,-0.7862,-0.785,-0.7843,-0.7859,-0.7855,-0.7859,-0.7863,-0.7852,-0.7884,-0.7876,-0.7861,-0.7837,-0.7876,-0.7889,-0.7895,-0.7818,-0.7817,-0.7816,-0.7816,0,0,-0.7895,-0.7885,-0.7891,-0.789,-0.7885,-0.7892,-0.7907,-0.7911,-0.7916,-0.7916,-0.7928,-0.7939,-0.7924,-0.7925,-0.7914,-0.7926,-0.7962,-0.7908,-0.7908,-0.7918,-0.7996,-0.8007,-0.8014,-0.7951,-0.7952,-0.7953,-0.7996,0,-0.7939,-0.7963,-0.7948,-0.7974,-0.7983,-0.796,-0.7973,-0.7971,-0.7964,-0.7971,-0.7963,-0.7971,-0.7951,-0.7952,-0.7963,-0.7955,-0.7977,-0.7952,-0.7962,-0.7962,-0.7962,-0.8021,-0.8034,-0.8074,-0.8001,-0.8002,-0.8002,0,-0.7993,-0.7995,-0.8022,-0.8015,-0.8018,-0.803,-0.8032,-0.8038,-0.8036,-0.803,-0.8032,-0.8017,-0.803,-0.8007,-0.8025,-0.8009,-0.8012,-0.8009,-0.801,-0.801,-0.7984,-0.8023,-0.8087,-0.8092,-0.8011,-0.801,-0.8009,0,-0.804,-0.805,-0.8067,-0.8067,-0.8059,-0.8068,-0.8065,-0.8061,-0.8064,-0.8066,-0.8068,-0.8072,-0.8074,-0.8077,-0.8064,-0.8048,-0.8084,-0.8059,-0.8079,-0.8079,-0.8087,-0.8087,-0.8152,-0.809,-0.809,-0.809,-0.809,0,-0.809,-0.8107,-0.8088,-0.8098,-0.8117,-0.81,-0.8119,-0.8113,-0.811,-0.8119,-0.81,-0.8109,-0.8091,-0.8098,-0.8088,-0.8104,-0.8106,-0.8101,-0.8098,-0.8103,-0.8103,-0.8104,-0.8101,-0.8091,-0.8091,-0.8091,-0.8091,0,-0.8145,-0.8133,-0.815,-0.8141,-0.8139,-0.8153,-0.8145,-0.8155,-0.8146,-0.8158,-0.816,-0.8147,-0.8155,-0.8142,-0.8148,-0.8141,-0.8164,-0.8157,-0.8164,-0.8162,-0.8182,-0.818,-0.825,-0.8258,-0.8192,-0.8192,-0.8193,0,-0.8178,-0.8191,-0.8183,-0.8187,-0.8185,-0.8193,-0.8196,-0.818,-0.8184,-0.8182,-0.8191,-0.8197,-0.8201,-0.8213,-0.8205,-0.8209,-0.8202,-0.8226,-0.8202,-0.8206,-0.8201,-0.8201,-0.8202,-0.8231,-0.8232,-0.8232,-0.8233,0,-0.8237,-0.823,-0.8235,-0.8238,-0.8242,-0.8243,-0.8243,-0.8248,-0.8231,-0.8237,-0.8244,-0.8247,-0.8253,-0.8258,-0.8261,-0.8258,-0.8242,-0.824,-0.8245,-0.8249,-0.8253,-0.8251,-0.8177,-0.8239,-0.8238,-0.8238,-0.8237,-0.8237,-0.8281,-0.8291,-0.8287,-0.8293,-0.8291,-0.8292,-0.83,-0.8293,-0.8298,-0.8302,-0.8292,-0.8301,-0.8298,-0.83,-0.8298,-0.8305,-0.8295,-0.8302,-0.8303,-0.8305,-0.8308,-0.8253,-0.8306,-0.8306,-0.8305,-0.8305,-0.8305,0,-0.8339,-0.8335,-0.8341,-0.8341,-0.8346,-0.8331,-0.833,-0.8335,-0.8344,-0.8342,-0.8346,-0.8354,-0.836,-0.8351,-0.8355,-0.8363,-0.8356,-0.8364,-0.8363,-0.8363,-0.8318,-0.8313,-0.837,-0.837,-0.837,-0.837,-0.837,-0.837,-0.8369,-0.8385,-0.8378,-0.8392,-0.8388,-0.8397,-0.8398,-0.8398,-0.8397,-0.8406,-0.8411,-0.8405,-0.8401,-0.8405,-0.8409,-0.8406,-0.8409,-0.842,-0.8415,-0.8372,-0.8366,-0.836,-0.8355,-0.842,-0.842,-0.8459,-0.8459,-0.846]},{"header":{"parameterUnit":"m.s-1","parameterCategory":1,"la1":30.2991,"la2":30.254,"lo1":-89.0895,"lo2":-89.0444,"dy":0.0017,"dx":0.0017,"nx":28,"ny":28,"refTime":"2024-06-10T21:00:00:Z","depth":0,"parameterNumber":3,"parameterNumberName":"V-component_of_WINDS"},"data":[0,0,0,0,0,0,0,0,0,0,0,0,0,0,0,0,0,0,0,0,0,0,0,0,0,0,0,0,0,0,0,0,0,0,0,0,0,0,0,0,0,0,0,0,0,0,0,0,0,0,0,0,0,0,0,0,0,0,-1.2076,-1.2077,0,-1.2167,-1.2168,-1.2169,-1.2214,-1.2214,-1.2214,-1.2214,-1.2306,-1.2308,-1.2311,0,0,0,0,0,0,0,0,0,0,0,0,0,-1.194,-1.1943,-1.2076,-1.2077,-1.2078,-1.2167,-1.2168,-1.2169,-1.2214,-1.2214,-1.2214,-1.2214,-1.2305,-1.2308,-1.2311,0,0,0,0,0,0,0,0,0,0,0,0,0,-1.2012,-1.1943,-1.2076,-1.2111,-1.2115,-1.2167,-1.2168,-1.217,-1.2214,-1.2214,-1.2214,-1.2214,-1.2304,-1.2308,-1.2311,-1.2334,0,0,-1.2323,-1.2324,0,0,0,0,0,0,0,0,-1.2008,-1.2017,-1.2105,-1.2109,-1.2114,-1.2179,-1.2154,-1.2225,-1.2214,-1.2176,-1.2214,-1.2214,-1.2264,-1.2271,-1.2288,-1.2339,-1.2343,-1.2323,-1.2325,-1.2327,-1.2328,0,0,0,0,0,0,0,-1.2003,-1.2013,-1.2112,-1.2106,-1.2111,-1.2122,-1.2132,-1.2168,-1.2219,-1.218,-1.2183,-1.2193,-1.2266,-1.2284,-1.229,-1.2344,-1.2323,-1.2326,-1.2328,-1.233,-1.2418,-1.2418,0,0,0,0,0,0,-1.1992,-1.2009,-1.2109,-1.2115,-1.206,-1.2125,-1.2136,-1.2158,-1.2219,-1.2228,-1.2193,-1.2195,-1.2278,-1.2286,-1.2294,-1.2324,-1.2327,-1.233,-1.2332,-1.2418,-1.2418,-1.2418,0,0,0,0,0,0,-1.1989,-1.2001,-1.2106,-1.2063,-1.2077,-1.2127,-1.2151,-1.216,-1.2178,-1.2229,-1.2238,-1.2202,-1.2278,-1.2288,-1.2324,-1.2328,-1.2332,-1.2335,-1.2418,-1.2418,-1.2418,-1.2386,0,0,0,0,0,0,-1.1985,-1.1999,-1.2009,-1.2063,-1.2079,-1.2134,-1.2152,-1.2162,-1.2184,-1.2187,-1.224,-1.2248,-1.2279,-1.2318,-1.2327,-1.2333,-1.2338,-1.2417,-1.2418,-1.2418,-1.2387,-1.2385,-1.2383,0,0,0,0,0,-1.198,-1.1996,-1.2009,-1.2021,-1.2092,-1.2135,-1.2144,-1.2179,-1.2184,-1.2194,-1.2227,-1.2247,-1.2326,-1.2321,-1.2332,-1.2339,-1.2417,-1.2418,-1.2418,-1.2388,-1.2385,-1.2383,0,0,0,0,0,0,-1.1942,-1.2004,-1.2019,-1.2053,-1.2088,-1.2142,-1.2156,-1.2175,-1.2209,-1.2211,-1.2252,-1.2264,-1.2295,-1.2321,-1.2315,-1.2365,-1.2374,-1.2376,-1.2347,-1.2345,-1.2343,-1.2337,-1.2341,0,0,0,0,0,-1.1937,-1.1967,-1.202,-1.2044,-1.2061,-1.2105,-1.2125,-1.2149,-1.2187,-1.2202,-1.2237,-1.2273,-1.2306,-1.2327,-1.236,-1.2391,-1.2403,-1.2401,-1.2399,-1.2397,-1.2399,-1.2417,-1.2417,-1.2419,-1.2419,-1.2419,0,0,-1.1928,-1.1966,-1.1982,-1.2038,-1.2068,-1.2097,-1.2117,-1.2148,-1.217,-1.2206,-1.2242,-1.2269,-1.2312,-1.2345,-1.2361,-1.2367,-1.2401,-1.2398,-1.2396,-1.2399,-1.2417,-1.2417,-1.2417,-1.2419,-1.2419,-1.2419,0,0,-1.1927,-1.1958,-1.1983,-1.2012,-1.2057,-1.2086,-1.2092,-1.2143,-1.2162,-1.2199,-1.2226,-1.2253,-1.2309,-1.2339,-1.2361,-1.237,-1.2389,-1.2379,-1.237,-1.2387,-1.2387,-1.2387,-1.239,-1.2391,-1.2381,-1.2381,-1.2381,0,-1.191,-1.1956,-1.1992,-1.2021,-1.2045,-1.2079,-1.2103,-1.213,-1.2184,-1.2199,-1.2205,-1.2276,-1.2307,-1.2347,-1.2349,-1.2366,-1.2374,-1.2374,-1.2384,-1.2385,-1.2385,-1.2389,-1.239,-1.2379,-1.2379,-1.2379,-1.238,0,-1.1933,-1.1964,-1.1978,-1.2029,-1.2054,-1.208,-1.2121,-1.2141,-1.2163,-1.2191,-1.2227,-1.2266,-1.2307,-1.2318,-1.234,-1.2362,-1.2364,-1.2376,-1.2386,-1.2383,-1.2387,-1.2389,-1.2377,-1.2378,-1.2378,-1.2378,0,0,-1.191,-1.1981,-1.1985,-1.2009,-1.2061,-1.2085,-1.2113,-1.2154,-1.2171,-1.2206,-1.2231,-1.2277,-1.2289,-1.2314,-1.2338,-1.2353,-1.2358,-1.2364,-1.2366,-1.2361,-1.2384,-1.2374,-1.2375,-1.2371,-1.2371,-1.2371,-1.238,0,-1.1916,-1.1968,-1.2002,-1.204,-1.2069,-1.2101,-1.2126,-1.216,-1.2187,-1.2215,-1.2245,-1.2277,-1.229,-1.2306,-1.2321,-1.2354,-1.2363,-1.2353,-1.2394,-1.2395,-1.2382,-1.2378,-1.2368,-1.2374,-1.2382,-1.2383,-1.2383,0,-1.1931,-1.1965,-1.2006,-1.2055,-1.2068,-1.209,-1.2129,-1.2156,-1.2195,-1.2214,-1.2241,-1.2266,-1.2297,-1.2304,-1.2346,-1.2339,-1.2357,-1.2375,-1.2376,-1.2382,-1.2389,-1.2383,-1.2377,-1.2378,-1.2386,-1.2385,-1.2385,0,-1.191,-1.1967,-1.1999,-1.2018,-1.2075,-1.2089,-1.2114,-1.2153,-1.2175,-1.221,-1.2225,-1.2262,-1.2283,-1.2311,-1.2345,-1.2347,-1.2384,-1.2394,-1.24,-1.2399,-1.2407,-1.2406,-1.2404,-1.2418,-1.2418,-1.2418,-1.2418,0,-1.1914,-1.1938,-1.1991,-1.201,-1.2038,-1.2076,-1.2102,-1.2129,-1.2164,-1.2189,-1.2219,-1.2242,-1.2286,-1.2314,-1.2341,-1.2372,-1.2381,-1.2396,-1.2403,-1.2394,-1.2392,-1.2407,-1.2407,-1.2418,-1.2418,-1.2418,-1.2418,0,-1.1896,-1.1932,-1.1969,-1.202,-1.2034,-1.2052,-1.2095,-1.2115,-1.2144,-1.2175,-1.2185,-1.2229,-1.2264,-1.2301,-1.2348,-1.2366,-1.2396,-1.2405,-1.2382,-1.2386,-1.239,-1.2389,-1.2398,-1.2402,-1.2413,-1.2412,-1.2412,0,-1.1896,-1.1915,-1.1968,-1.1987,-1.2011,-1.2041,-1.2064,-1.2102,-1.2124,-1.217,-1.2184,-1.2221,-1.2253,-1.2307,-1.2343,-1.2379,-1.239,-1.2391,-1.2396,-1.2386,-1.239,-1.2389,-1.2391,-1.2389,-1.2389,-1.2389,-1.2388,0,-1.1892,-1.1909,-1.1941,-1.1978,-1.2005,-1.2036,-1.2069,-1.2083,-1.2127,-1.215,-1.2186,-1.2211,-1.2259,-1.2295,-1.2336,-1.2361,-1.2382,-1.2386,-1.239,-1.2381,-1.2367,-1.2374,-1.2378,-1.2386,-1.2386,-1.2387,-1.2387,-1.2387,-1.1883,-1.1902,-1.1942,-1.1976,-1.2004,-1.2034,-1.2055,-1.2086,-1.2117,-1.2159,-1.2179,-1.2215,-1.2253,-1.231,-1.2334,-1.2363,-1.2369,-1.2374,-1.2375,-1.2376,-1.2373,-1.2362,-1.237,-1.237,-1.237,-1.2371,-1.2371,0,-1.1881,-1.1908,-1.1939,-1.1984,-1.2011,-1.2028,-1.2065,-1.2086,-1.2117,-1.2151,-1.2182,-1.2223,-1.2258,-1.2297,-1.2334,-1.2349,-1.236,-1.2358,-1.2357,-1.2363,-1.2366,-1.2359,-1.2349,-1.2349,-1.2349,-1.2349,-1.2349,-1.2349,-1.1883,-1.1915,-1.1936,-1.1983,-1.201,-1.2045,-1.2065,-1.2092,-1.212,-1.2164,-1.2193,-1.2218,-1.2254,-1.2295,-1.2328,-1.2338,-1.235,-1.2346,-1.2359,-1.2361,-1.2363,-1.2364,-1.2358,-1.2348,-1.2348,-1.2354,-1.2354,-1.2354]}]]